Regional Weather Roundup
Issued by NWS

Home | Current Version | Previous Version | Graphics & Text | Print | Product List | Glossary On
Versions: 1 2 3 4 5 6 7 8 9 10 11 12 13 14 15 16 17 18 19 20 21 22 23 24 25 26 27 28 29 30 31 32 33 34 35 36 37 38 39 40 41 42 43 44 45 46 47 48 49 50
119
ASUS44 KLIX 171401
RWRLA
LOUISIANA WEATHER ROUNDUP
NATIONAL WEATHER SERVICE NEW ORLEANS LA
900 AM CDT WED SEP 17 2014

NOTE: "FAIR" INDICATES FEW OR NO CLOUDS BELOW 12,000 FEET WITH NO
      SIGNIFICANT WEATHER AND/OR OBSTRUCTIONS TO VISIBILITY.
      SKY/WX - SKY CONDITION AND SIGNIFICANT WEATHER.
      TMP - AIR TEMPERATURE.    DP   - DEWPOINT TEMPERATURE.
      RH  - RELATIVE HUMIDITY.  PRES - PRESSURE.
      HX  - HEAT INDEX.         WCI  - WIND CHILL INDEX.

*  THESE STATIONS ARE NOT NWS OR FAA STATIONS AND ARE NOT UNDER
   NWS QUALITY CONTROL.

LAZ040-048-061>063-065-066-069-171500-
SOUTHEAST LOUISIANA

CITY           SKY/WX    TMP DP  RH WIND       PRES   REMARKS
N.O. AUDUBON     N/A     84  76  78 MISG        N/A
N.O. INTL ARPT PTSUNNY   82  73  74 NE7       29.98R
N.O. LAKEFRONT MOSUNNY   81  72  74 NE5       29.98S
N.O. DOWNTOWN* FAIR      81  70  69 CALM      29.99R
SLIDELL        MOSUNNY   77  72  84 CALM      29.98S
BATON ROUGE    MOSUNNY   77  72  84 CALM      29.99R
BOOTHVILLE     MOSUNNY   82  72  71 NE3       29.98R
BELLE CHASSE   PTSUNNY   81  72  74 CALM      29.98R
BOGALUSA*      PTSUNNY   75  72  90 CALM      30.00R
GALLIANO*      NOT AVBL
NEW ROADS*     CLOUDY    73  72  99 CALM      29.99S
GONZALES*      PTSUNNY   74  74 100 CALM      29.99R FOG
HAMMOND*       NOT AVBL
HOUMA*         MOSUNNY   79  70  73 N3        29.99R HAZE
PORT FOURCHON* SUNNY     82  73  74 N5        30.01S

$$

LAZ041-044-053-054-171500-
SOUTHWEST LOUISIANA

CITY           SKY/WX    TMP DP  RH WIND       PRES   REMARKS
LAKE CHARLES   PTSUNNY   75  73  93 E5        29.98R
LAFAYETTE      SUNNY     78  74  87 CALM      29.98S
PATTERSON      MOSUNNY   73  72  94 CALM      30.02R
SALT POINT       N/A     79  74  84 SE5       29.99R
NEW IBERIA     SUNNY     79  73  82 E5        29.99R
CHENAULT AIRPK NOT AVBL

$$

LAZ027-028-171500-
CENTRAL LOUISIANA

CITY           SKY/WX    TMP DP  RH WIND       PRES   REMARKS
FORT POLK      CLOUDY    73  72  96 CALM      29.99S
ALEXANDRIA INT FOG       72  72 100 CALM      29.97S VSB 1/4
ALEXANDRIA     CLOUDY    72  71  97 CALM      29.99S

$$

LAZ001-002-171500-
NORTHWEST LOUISIANA

CITY           SKY/WX    TMP DP  RH WIND       PRES   REMARKS
SHREVEPORT     PTSUNNY   75  72  90 S5        29.98S
BARKSDALE AFB  PTSUNNY   76  72  87 VRB2      29.98S
DTN SHREVEPORT PTSUNNY   77  72  84 CALM      29.98S

$$

LAZ014-016-171500-
NORTHEAST LOUISIANA

CITY           SKY/WX    TMP DP  RH WIND       PRES   REMARKS
MONROE         SUNNY     76  71  85 NE3       29.99S
TALLULAH       SUNNY     76  71  85 E3        29.98S

$$




USA.gov is the U.S. government's official web portal to all federal, state and local government web resources and services.